Terminal Aerodrome Forecast
Issued by NWS Sioux Falls, SD

Home | Current Version | Previous Version | Graphics & Text | Print | Product List | Glossary On
Versions: 1 2 3 4 5 6 7 8 9 10 11 12 13 14 15 16 17 18 19 20 21 22 23 24 25 26 27 28 29 30
000
FTUS43 KFSD 120751 AAA
TAFSUX
TAF AMD
KSUX 120751Z 1208/1306 35007KT P6SM -RA OVC035
     FM121300 01011KT P6SM OVC035
     FM121700 35005KT P6SM SCT030 OVC040
     FM122000 34004KT P6SM SCT035 SCT100=

USA.gov is the U.S. government's official web portal to all federal, state and local government web resources and services.